Weather History for Pensacola NAS, FL

Change the Weather History Date:

Thursday, December 27, 2012

  Actual Average Record
Temperature  
Mean Temperature 40 °F -  
Max Temperature 46 °F 58 °F 75 °F (2008)
Min Temperature 35 °F 39 °F 27 °F (2010)
Degree Days  
Heating Degree Days 24    
Moisture  
Dew Point 34 °F    
Average Humidity 82    
Maximum Humidity 100    
Minimum Humidity 68    
Precipitation  
Precipitation 0.00 in - - ()
Sea Level Pressure  
Sea Level Pressure 30.13 in    
Wind  
Wind Speed 6 mph (North)    
Max Wind Speed 12 mph    
Max Gust Speed -    
Visibility 10 miles    
Events      
Averages and records for this station are not official NWS values.
T = Trace of Precipitation, MM = Missing Value Source: NWS Daily Summary

Daily Weather History Graph

Daily Weather History Graph

Search for Another Location

Airport:

Trip Planner

Search our weather history database for the weather conditions in past years. The results will help you decide how hot, cold, wet, or windy it might be!

Date:

Astronomy

Dec. 27, 2012 Rise Set
Actual Time 6:44 AM CST 4:56 PM CST
Civil Twilight 6:18 AM CST 5:23 PM CST
Nautical Twilight 5:48 AM CST 5:53 PM CST
Astronomical Twilight 5:18 AM CST 6:22 PM CST
Moon 4:37 PM CST (12/27) 5:57 AM CST (12/27)
Length of Visible Light 11h 05m
Length of Day
10h 12m
Full, 100% of the Moon is Illuminated
Dec 27
Full
Dec 28
Full
Jan 4
Last Quarter
Jan 11
New
Jan 18
First Quarter

Hourly Weather History & Observations

Time (CST) Temp. Windchill Dew Point Humidity Pressure Visibility Wind Dir Wind Speed Gust Speed Precip Events Conditions
12:56 AM 37.9 °F 32.1 °F 32.0 °F 79% 30.12 in 10.0 mi North 8.1 mph - N/A   Overcast
1:56 AM 37.9 °F 33.5 °F 32.0 °F 79% 30.12 in 10.0 mi North 5.8 mph - N/A   Overcast
2:56 AM 37.9 °F 31.5 °F 32.0 °F 79% 30.12 in 10.0 mi North 9.2 mph - N/A   Overcast
3:56 AM 37.9 °F 33.5 °F 32.0 °F 79% 30.11 in 10.0 mi North 5.8 mph - N/A   Overcast
4:56 AM 37.0 °F 31.6 °F 32.0 °F 82% 30.12 in 10.0 mi North 6.9 mph - N/A   Overcast
5:42 AM 37.4 °F 33.8 °F 32.0 °F 81% 30.12 in 10.0 mi North 4.6 mph - N/A   Overcast
5:56 AM 37.0 °F 29.3 °F 32.0 °F 82% 30.12 in 10.0 mi North 11.5 mph - N/A   Overcast
6:56 AM 36.0 °F 29.0 °F 30.9 °F 82% 30.14 in 10.0 mi North 9.2 mph - N/A   Overcast
7:56 AM 36.0 °F 29.6 °F 30.9 °F 82% 30.17 in 10.0 mi NNW 8.1 mph - N/A   Overcast
8:56 AM 39.0 °F 34.0 °F 32.0 °F 76% 30.19 in 10.0 mi North 6.9 mph - N/A   Mostly Cloudy
9:32 AM 39.2 °F 35.9 °F 33.8 °F 81% 30.19 in 10.0 mi Variable 4.6 mph - N/A   Mostly Cloudy
9:56 AM 42.1 °F - 33.1 °F 70% 30.20 in 10.0 mi Calm Calm - N/A   Mostly Cloudy
10:37 AM 41.0 °F - 33.8 °F 76% 30.19 in 10.0 mi Calm Calm - N/A   Scattered Clouds
10:56 AM 43.0 °F 41.3 °F 33.1 °F 68% 30.19 in 10.0 mi NNE 3.5 mph - N/A   Mostly Cloudy
11:56 AM 44.1 °F 40.8 °F 35.1 °F 71% 30.16 in 10.0 mi SSE 5.8 mph - N/A   Mostly Cloudy
12:56 PM 45.0 °F 42.6 °F 36.0 °F 71% 30.12 in 10.0 mi Variable 4.6 mph - N/A   Mostly Cloudy
1:56 PM 46.0 °F 43.1 °F 37.0 °F 71% 30.11 in 10.0 mi South 5.8 mph - N/A   Mostly Cloudy
2:56 PM 46.0 °F 41.9 °F 37.9 °F 73% 30.10 in 10.0 mi South 8.1 mph - N/A   Scattered Clouds
3:56 PM 46.0 °F 43.1 °F 37.9 °F 73% 30.09 in 10.0 mi SSW 5.8 mph - N/A   Scattered Clouds
4:56 PM 44.1 °F 42.5 °F 37.9 °F 79% 30.11 in 10.0 mi West 3.5 mph - N/A   Mostly Cloudy
5:56 PM 42.1 °F 40.2 °F 37.9 °F 85% 30.11 in 10.0 mi WSW 3.5 mph - N/A   Scattered Clouds
6:56 PM 39.0 °F - 37.9 °F 96% 30.11 in 10.0 mi Calm Calm - N/A   Partly Cloudy
7:56 PM 37.0 °F - 36.0 °F 96% 30.10 in 9.0 mi Calm Calm - N/A   Partly Cloudy
8:56 PM 36.0 °F - 36.0 °F 100% 30.10 in 10.0 mi Calm Calm - N/A   Partly Cloudy
9:56 PM 35.1 °F - 35.1 °F 100% 30.11 in 6.0 mi Calm Calm - N/A   Clear
10:56 PM 37.0 °F - 37.0 °F 100% 30.09 in 10.0 mi Calm Calm - 0.00 in   Clear
11:56 PM 39.0 °F 35.7 °F 37.0 °F 93% 30.08 in 10.0 mi NE 4.6 mph - N/A   Clear